Location: Musselshell
(46.5176°N, 108.0911°W)
Time: 04:27:33
(UTC+00:00)

BEESAT - Visible Passes

Search period start: 29 June 2022 00:00
Search period end: 09 July 2022 00:00
Orbit: 698 x 708 km, 98.6° (Epoch: 28 June)

Date Brightness Start Highest point End Pass type
(mag) Time Alt. Az. Time Alt. Az. Time Alt. Az.
29 Jun ? 03:59:06 10° N 04:03:52 71° WNW 04:08:36 10° SSW visible
29 Jun ? 05:39:38 10° NW 05:40:43 11° NW 05:41:47 10° WNW visible
30 Jun ? 04:42:29 10° N 04:46:36 30° WNW 04:50:43 10° SW visible
01 Jul ? 03:47:16 10° NNE 03:52:04 90° E 03:56:51 10° SSW visible
01 Jul ? 05:26:47 10° NNW 05:29:05 14° WNW 05:31:24 10° W visible
02 Jul ? 04:30:30 10° N 04:34:53 37° WNW 04:39:16 10° SW visible
03 Jul ? 05:14:25 10° NNW 05:17:27 17° WNW 05:20:28 10° W visible
04 Jul ? 04:18:34 10° N 04:23:09 48° WNW 04:27:43 10° SW visible
05 Jul ? 05:02:14 10° NNW 05:05:47 21° WNW 05:09:20 10° WSW visible
06 Jul ? 04:06:40 10° N 04:11:24 62° WNW 04:16:06 10° SSW visible
07 Jul ? 04:50:08 10° N 04:54:05 26° WNW 04:58:02 10° WSW visible
08 Jul ? 03:54:48 10° NNE 03:59:36 80° WNW 04:04:23 10° SSW visible
08 Jul ? 05:34:43 10° NNW 05:36:32 12° NW 05:38:20 10° WNW visible
